Stündliche Wetter Otjinene

Heute, 14 April, Mittwoch

Zeit Temperatur Niederschläge Wind Luftdruck Luftfeuchtigkeit
00:00 +15°C° 0 mm 4 m/S 644 mmHg 35%
01:00 +15°C° 0 mm 4 m/S 644 mmHg 37%
02:00 +14°C° 0 mm 4 m/S 643 mmHg 39%
03:00 +14°C° 0 mm 4 m/S 643 mmHg 41%
04:00 +14°C° 0 mm 3 m/S 643 mmHg 42%
05:00 +14°C° 0 mm 3 m/S 643 mmHg 45%
06:00 +14°C° 0 mm 4 m/S 644 mmHg 47%
07:00 +15°C° 0 mm 4 m/S 644 mmHg 49%
08:00 +17°C° 0 mm 5 m/S 645 mmHg 42%
09:00 +21°C° 0 mm 6 m/S 646 mmHg 36%
10:00 +24°C° 0 mm 7 m/S 646 mmHg 30%
11:00 +26°C° 0 mm 7 m/S 646 mmHg 27%
12:00 +27°C° 0 mm 7 m/S 645 mmHg 23%
13:00 +28°C° 0 mm 7 m/S 645 mmHg 20%
14:00 +28°C° 0 mm 7 m/S 644 mmHg 20%
15:00 +27°C° 0 mm 7 m/S 644 mmHg 19%
16:00 +27°C° 0 mm 6 m/S 643 mmHg 18%
17:00 +25°C° 0 mm 5 m/S 643 mmHg 22%
18:00 +21°C° 0 mm 4 m/S 643 mmHg 25%
19:00 +19°C° 0 mm 3 m/S 643 mmHg 28%
20:00 +18°C° 0 mm 3 m/S 643 mmHg 30%
21:00 +18°C° 0 mm 3 m/S 643 mmHg 32%
22:00 +17°C° 0 mm 3 m/S 643 mmHg 34%
23:00 +17°C° 0 mm 3 m/S 643 mmHg 35%

Morgen, 15 April, Donnerstag

Zeit Temperatur Niederschläge Wind Luftdruck Luftfeuchtigkeit
00:00 +16°C° 0 mm 3 m/S 643 mmHg 36%
01:00 +16°C° 0 mm 3 m/S 642 mmHg 38%
02:00 +16°C° 0 mm 3 m/S 642 mmHg 38%
03:00 +16°C° 0 mm 3 m/S 642 mmHg 39%
04:00 +15°C° 0 mm 2 m/S 642 mmHg 40%
05:00 +16°C° 0 mm 3 m/S 642 mmHg 40%
06:00 +16°C° 0 mm 3 m/S 643 mmHg 40%
07:00 +17°C° 0 mm 3 m/S 643 mmHg 40%
08:00 +20°C° 0 mm 5 m/S 644 mmHg 35%
09:00 +23°C° 0 mm 6 m/S 645 mmHg 30%
10:00 +27°C° 0 mm 8 m/S 645 mmHg 25%
11:00 +28°C° 0 mm 8 m/S 645 mmHg 24%
12:00 +28°C° 0 mm 8 m/S 644 mmHg 22%
13:00 +29°C° 0 mm 8 m/S 644 mmHg 21%
14:00 +29°C° 0 mm 7 m/S 643 mmHg 20%
15:00 +29°C° 0 mm 7 m/S 643 mmHg 20%
16:00 +28°C° 0 mm 7 m/S 643 mmHg 20%
17:00 +26°C° 0 mm 5 m/S 642 mmHg 22%
18:00 +22°C° 0 mm 4 m/S 642 mmHg 25%
19:00 +20°C° 0 mm 3 m/S 642 mmHg 27%
20:00 +19°C° 0 mm 3 m/S 642 mmHg 28%
21:00 +19°C° 0 mm 2 m/S 642 mmHg 29%
22:00 +18°C° 0 mm 2 m/S 642 mmHg 30%
23:00 +18°C° 0 mm 2 m/S 642 mmHg 30%

übermorgen, 16 April, Freitag

Zeit Temperatur Niederschläge Wind Luftdruck Luftfeuchtigkeit
00:00 +17°C° 0 mm 2 m/S 642 mmHg 31%
01:00 +17°C° 0 mm 3 m/S 642 mmHg 31%
02:00 +17°C° 0 mm 2 m/S 641 mmHg 32%
03:00 +17°C° 0 mm 2 m/S 641 mmHg 32%
04:00 +16°C° 0 mm 2 m/S 641 mmHg 33%
05:00 +17°C° 0 mm 2 m/S 641 mmHg 34%
06:00 +17°C° 0 mm 3 m/S 642 mmHg 35%
07:00 +18°C° 0 mm 3 m/S 643 mmHg 36%
08:00 +21°C° 0 mm 4 m/S 643 mmHg 32%
09:00 +25°C° 0 mm 5 m/S 644 mmHg 28%
10:00 +28°C° 0 mm 7 m/S 645 mmHg 23%
11:00 +28°C° 0 mm 7 m/S 644 mmHg 22%
12:00 +28°C° 0 mm 7 m/S 644 mmHg 22%
13:00 +28°C° 0 mm 7 m/S 643 mmHg 21%
14:00 +28°C° 0 mm 6 m/S 643 mmHg 21%
15:00 +28°C° 0 mm 6 m/S 643 mmHg 21%
16:00 +29°C° 0 mm 6 m/S 642 mmHg 20%
17:00 +27°C° 0 mm 5 m/S 642 mmHg 23%
18:00 +25°C° 0 mm 4 m/S 642 mmHg 26%
19:00 +22°C° 0 mm 3 m/S 642 mmHg 29%
20:00 +21°C° 0 mm 3 m/S 642 mmHg 30%
21:00 +20°C° 0 mm 3 m/S 642 mmHg 31%
22:00 +20°C° 0 mm 3 m/S 642 mmHg 31%
23:00 +19°C° 0 mm 3 m/S 642 mmHg 33%

17 April, Samstag

Zeit Temperatur Niederschläge Wind Luftdruck Luftfeuchtigkeit
00:00 +18°C° 0 mm 3 m/S 641 mmHg 35%
01:00 +18°C° 0 mm 3 m/S 641 mmHg 37%
02:00 +17°C° 0 mm 3 m/S 641 mmHg 38%
03:00 +17°C° 0 mm 3 m/S 641 mmHg 40%
04:00 +17°C° 0 mm 3 m/S 641 mmHg 42%
05:00 +17°C° 0 mm 3 m/S 641 mmHg 45%
06:00 +17°C° 0 mm 4 m/S 642 mmHg 48%
07:00 +16°C° 0 mm 5 m/S 642 mmHg 50%
08:00 +20°C° 0 mm 6 m/S 643 mmHg 42%
09:00 +22°C° 0 mm 7 m/S 644 mmHg 34%
10:00 +26°C° 0 mm 8 m/S 645 mmHg 26%
11:00 +27°C° 0 mm 8 m/S 644 mmHg 24%
12:00 +28°C° 0 mm 8 m/S 644 mmHg 23%
13:00 +29°C° 0 mm 7 m/S 644 mmHg 21%
14:00 +28°C° 0 mm 7 m/S 643 mmHg 22%
15:00 +28°C° 0 mm 7 m/S 643 mmHg 22%
16:00 +28°C° 0 mm 7 m/S 643 mmHg 23%
17:00 +26°C° 0 mm 6 m/S 643 mmHg 27%
18:00 +23°C° 0 mm 5 m/S 643 mmHg 32%
19:00 +21°C° 0 mm 4 m/S 643 mmHg 36%
20:00 +20°C° 0 mm 4 m/S 643 mmHg 41%
21:00 +20°C° 0 mm 5 m/S 643 mmHg 46%
22:00 +19°C° 0 mm 5 m/S 643 mmHg 51%
23:00 +17°C° 0 mm 5 m/S 643 mmHg 53%

18 April, Sonntag

Zeit Temperatur Niederschläge Wind Luftdruck Luftfeuchtigkeit
00:00 +18°C° 0 mm 4 m/S 643 mmHg 54%
01:00 +17°C° 0 mm 3 m/S 643 mmHg 56%
02:00 +17°C° 0 mm 3 m/S 643 mmHg 57%
03:00 +17°C° 0 mm 4 m/S 643 mmHg 58%
04:00 +15°C° 0 mm 4 m/S 643 mmHg 58%
05:00 +17°C° 0 mm 4 m/S 643 mmHg 58%
06:00 +17°C° 0 mm 4 m/S 644 mmHg 58%
07:00 +16°C° 0 mm 5 m/S 644 mmHg 58%
08:00 +19°C° 0 mm 5 m/S 645 mmHg 54%
09:00 +20°C° 0 mm 5 m/S 645 mmHg 50%
10:00 +21°C° 0 mm 5 m/S 645 mmHg 46%
11:00 +22°C° 0 mm 5 m/S 645 mmHg 42%
12:00 +25°C° 0 mm 5 m/S 645 mmHg 39%
13:00 +26°C° 0 mm 4 m/S 644 mmHg 35%
14:00 +23°C° 0.4 mm 5 m/S 644 mmHg 45%
15:00 +21°C° 0.4 mm 5 m/S 643 mmHg 56%
16:00 +19°C° 0.4 mm 5 m/S 643 mmHg 66%
17:00 +17°C° 0.5 mm 5 m/S 643 mmHg 70%
18:00 +17°C° 0.5 mm 4 m/S 644 mmHg 74%
19:00 +15°C° 0.5 mm 4 m/S 644 mmHg 78%
20:00 +15°C° 0.5 mm 4 m/S 644 mmHg 79%
21:00 +15°C° 0.5 mm 4 m/S 644 mmHg 80%
22:00 +14°C° 0.5 mm 4 m/S 645 mmHg 81%
23:00 +15°C° 0.1 mm 4 m/S 644 mmHg 77%

19 April, Montag

Zeit Temperatur Niederschläge Wind Luftdruck Luftfeuchtigkeit
00:00 +16°C° 0.1 mm 3 m/S 644 mmHg 73%
01:00 +17°C° 0.1 mm 3 m/S 644 mmHg 68%
02:00 +17°C° 0 mm 3 m/S 643 mmHg 69%
03:00 +16°C° 0 mm 3 m/S 643 mmHg 69%
04:00 +16°C° 0 mm 3 m/S 643 mmHg 70%
05:00 +16°C° 0 mm 2 m/S 643 mmHg 69%
06:00 +16°C° 0 mm 2 m/S 643 mmHg 68%
07:00 +16°C° 0 mm 2 m/S 644 mmHg 67%
08:00 +19°C° 0 mm 3 m/S 644 mmHg 57%
09:00 +21°C° 0 mm 5 m/S 645 mmHg 46%
10:00 +23°C° 0 mm 6 m/S 646 mmHg 36%
11:00 +25°C° 0 mm 5 m/S 645 mmHg 34%
12:00 +26°C° 0 mm 5 m/S 645 mmHg 32%
13:00 +27°C° 0 mm 4 m/S 644 mmHg 29%
14:00 +27°C° 0 mm 4 m/S 644 mmHg 29%
15:00 +27°C° 0 mm 4 m/S 644 mmHg 29%
16:00 +26°C° 0 mm 4 m/S 643 mmHg 29%
17:00 +24°C° 0 mm 3 m/S 643 mmHg 31%
18:00 +22°C° 0 mm 3 m/S 643 mmHg 34%
19:00 +20°C° 0 mm 3 m/S 643 mmHg 37%
20:00 +19°C° 0 mm 3 m/S 643 mmHg 36%
21:00 +19°C° 0 mm 3 m/S 643 mmHg 36%
22:00 +18°C° 0 mm 3 m/S 643 mmHg 35%
23:00 +17°C° 0 mm 3 m/S 643 mmHg 37%
Mehr zeigen

Wir brauchen deine Erlaubnis

Meteoprog und unser Service Anbieter werden persönliche Daten aufbewahren, so wie Cookies, Geräte Bezeichnung oder ähnliche Technologien von deinem Gerät und Prozess, so wie Persönliche Daten Inhalte und Werbungen, genauso wie social Media und den Verkehr zu analysieren.

  • Aufbewahrung und/oder Zugang zu deiner Geräte Informationen.

    Cookies, Geräte Bezeichnung oder andere Informationen, können aufbewahrt oder Zugang zu deinem Gerät erhalten, für den Grund, der oben angegeben wird.

  • Personalisierte Werbung und Inhalte, Messungen, Einblick in das Publikum und Produkt Entwicklung.

    Werbungen und Inhalte können personalisiert werden, basierend auf ein Profil. Mehr Daten können besser personalisierte Werbungen und Inhalte hinzufügen. Werbung und Inhalte können gezeigt und gemessen werden. Einblicke über das Publikum, welche die Werbung gesehen haben und den Inhalt, können abgeleitet werden. So wie Daten können genutzt werden, um es zu verbessern oder die Benutzer Erfahrung zu verbessern das System und die Software.

Wenn du “Ich stimme zu” klickst, erlaubst du uns, die Cookies zu benutzen die Geräte Bezeichnung, den Web oder ähnliche Technologien zu benutzen. Deine Settings, können in deinem Gerät bei deinem Browser geändert werden.

Für den bestimmten Zweck, berechtigten Interessen beruhen darauf, mehr als auf den Inhalt. Du kannst mehr darüber in unseren Privaten und Cookie Politik lesen.